Torna al catalogo

SL-14 DEB

AttivoPO
NORAD 19234·DEBRIS·🇷🇺 Russia

Lanciato Oct 26, 1978 da Plesetsk Cosmodrome

Loading…

Prossimi Passaggi (prossime 24 ore)

TLE

AggiornatoSource: Space-Track

Epoca: Sep 14, 2026, 02:41 UTC

1 19234U 78100AD  26257.11245424  .00000829  00000-0  12541-1 0  9993
2 19234  82.4253 134.5702 0143935 233.4569 282.0466 11.80582543649390

Traccia SL-14 DEB in tempo reale con AllMySat

Download on the App Store